INTELSAT 23 (IS-23)

Last updated on Sun Dec 14 2025 00:02:50 GMT+0000 (Coordinated Universal Time)

1 38867U 12057A 25346.83649600 -.00000272 00000+0 00000+0 0 9993 2 38867 0.0448 97.1317 0001042 126.8115 105.9792 1.00272659 48084
UTC large
Height (km)
Speed (km/s)
/
Latitude / Longitude
Inclination (degrees)
Orbital Period (minutes)
Azimuth
Elevation
Range (km)
Doppler Factor

Next 0 passes for location: London (51.5072 / 0.1276)

Sorry there are no passes over London.